| time (UTC) | temp F | wind direction | speed MPH | gust MPH | rain 1hr in | rain 24hr in | rain mn in | humidity % | barometer mb |
| 20260508044802 | 47 | 146 | 1.0 | 4.0 | 0.00 | 0.00 | 0.00 | 68 | 1013.3 |
| 20260508044702 | 47 | 143 | 1.0 | 4.0 | 0.00 | 0.00 | 0.00 | 68 | 1013.3 |
| 20260508044423 | 47 | 145 | 1.0 | 4.0 | 0.00 | 0.00 | 0.00 | 68 | 1013.3 |
| 20260508044302 | 47 | 144 | 1.0 | 4.0 | 0.00 | 0.00 | 0.00 | 68 | 1013.3 |
| 20260508044102 | 47 | 145 | 1.0 | 4.0 | 0.00 | 0.00 | 0.00 | 68 | 1013.3 |
| 20260508043902 | 47 | 141 | 1.0 | 4.0 | 0.00 | 0.00 | 0.00 | 67 | 1013.3 |
| 20260508043802 | 46 | 143 | 1.0 | 4.0 | 0.00 | 0.00 | 0.00 | 67 | 1013.3 |
| 20260508043623 | 46 | 140 | 1.0 | 4.0 | 0.00 | 0.00 | 0.00 | 68 | 1013.3 |
| 20260508043402 | 46 | 140 | 1.0 | 4.0 | 0.00 | 0.00 | 0.00 | 68 | 1013.4 |
| 20260508043202 | 46 | 138 | 1.0 | 2.0 | 0.00 | 0.00 | 0.00 | 68 | 1013.5 |
| 20260508043102 | 46 | 140 | 1.0 | 2.0 | 0.00 | 0.00 | 0.00 | 68 | 1013.4 |
| 20260508043002 | 46 | 138 | 1.0 | 2.0 | 0.00 | 0.00 | 0.00 | 68 | 1013.5 |
| 20260508042702 | 46 | 135 | 0.0 | 2.0 | 0.00 | 0.00 | 0.00 | 68 | 1013.3 |
| 20260508042602 | 46 | 130 | 0.0 | 2.0 | 0.00 | 0.00 | 0.00 | 67 | 1013.4 |
| 20260508042202 | 46 | 131 | 0.0 | 2.0 | 0.00 | 0.00 | 0.00 | 67 | 1013.4 |
| 20260508042002 | 46 | 131 | 0.0 | 2.0 | 0.00 | 0.00 | 0.00 | 68 | 1013.4 |
| 20260508041923 | 46 | 135 | 0.0 | 2.0 | 0.00 | 0.00 | 0.00 | 67 | 1013.4 |
| 20260508041702 | 46 | 138 | 0.0 | 2.0 | 0.00 | 0.00 | 0.00 | 67 | 1013.4 |
| 20260508041602 | 46 | 135 | 0.0 | 2.0 | 0.00 | 0.00 | 0.00 | 67 | 1013.3 |
| 20260508041523 | 46 | 136 | 0.0 | 2.0 | 0.00 | 0.00 | 0.00 | 68 | 1013.4 |
| 20260508041423 | 46 | 134 | 1.0 | 2.0 | 0.00 | 0.00 | 0.00 | 67 | 1013.3 |
| 20260508041102 | 46 | 145 | 1.0 | 4.0 | 0.00 | 0.00 | 0.00 | 66 | 1013.3 |
| 20260508041002 | 46 | 144 | 1.0 | 4.0 | 0.00 | 0.00 | 0.00 | 66 | 1013.3 |
| 20260508040623 | 46 | 148 | 1.0 | 4.0 | 0.00 | 0.00 | 0.00 | 66 | 1013.2 |
| 20260508040502 | 46 | 148 | 1.0 | 4.0 | 0.00 | 0.00 | 0.00 | 65 | 1013.2 |
| 20260508040202 | 45 | 145 | 1.0 | 3.0 | 0.00 | 0.00 | 0.00 | 66 | 1013.4 |
| 20260508035802 | 45 | 155 | 1.0 | 6.0 | 0.00 | 0.00 | 0.00 | 65 | 1013.3 |
| 20260508035702 | 45 | 155 | 2.0 | 6.0 | 0.00 | 0.00 | 0.00 | 65 | 1013.4 |
| 20260508035602 | 45 | 156 | 2.0 | 6.0 | 0.00 | 0.00 | 0.00 | 65 | 1013.4 |
| 20260508035402 | 45 | 155 | 1.0 | 6.0 | 0.00 | 0.00 | 0.00 | 65 | 1013.4 |
| 20260508035102 | 45 | 153 | 1.0 | 6.0 | 0.00 | 0.00 | 0.00 | 66 | 1013.5 |
| 20260508034902 | 44 | 143 | 0.0 | 6.0 | 0.00 | 0.00 | 0.00 | 67 | 1013.5 |
| 20260508034802 | 44 | 131 | 0.0 | 2.0 | 0.00 | 0.00 | 0.00 | 68 | 1013.4 |
| 20260508034702 | 44 | 126 | 0.0 | 2.0 | 0.00 | 0.00 | 0.00 | 69 | 1013.4 |
| 20260508034402 | 44 | 125 | 0.0 | 1.0 | 0.00 | 0.00 | 0.00 | 70 | 1013.5 |
| 20260508034002 | 43 | 131 | 0.0 | 1.0 | 0.00 | 0.00 | 0.00 | 70 | 1013.3 |
| 20260508033902 | 42 | 135 | 0.0 | 1.0 | 0.00 | 0.00 | 0.00 | 71 | 1013.3 |
| 20260508033802 | 42 | 138 | 0.0 | 1.0 | 0.00 | 0.00 | 0.00 | 73 | 1013.5 |
| 20260508033502 | 41 | 138 | 0.0 | 1.0 | 0.00 | 0.00 | 0.00 | 75 | 1013.4 |
| 20260508033402 | 41 | 138 | 0.0 | 1.0 | 0.00 | 0.00 | 0.00 | 76 | 1013.5 |
| 20260508033102 | 41 | 0 | 0.0 | 0.0 | 0.00 | 0.00 | 0.00 | 77 | 1013.3 |
| 20260508032423 | 40 | 0 | 0.0 | 0.0 | 0.00 | 0.00 | 0.00 | 80 | 1013.4 |
| 20260508032202 | 40 | 0 | 0.0 | 0.0 | 0.00 | 0.00 | 0.00 | 79 | 1013.3 |
| 20260508031902 | 40 | 0 | 0.0 | 0.0 | 0.00 | 0.00 | 0.00 | 79 | 1013.3 |
| 20260508031802 | 40 | 0 | 0.0 | 0.0 | 0.00 | 0.00 | 0.00 | 79 | 1013.4 |
| 20260508031702 | 40 | 0 | 0.0 | 0.0 | 0.00 | 0.00 | 0.00 | 80 | 1013.2 |
| 20260508031602 | 40 | 0 | 0.0 | 0.0 | 0.00 | 0.00 | 0.00 | 79 | 1013.4 |
| 20260508031502 | 40 | 0 | 0.0 | 0.0 | 0.00 | 0.00 | 0.00 | 80 | 1013.3 |
| 20260508031102 | 40 | 0 | 0.0 | 0.0 | 0.00 | 0.00 | 0.00 | 81 | 1013.6 |
| 20260508031023 | 40 | 0 | 0.0 | 0.0 | 0.00 | 0.00 | 0.00 | 81 | 1013.3 |
| 20260508030902 | 40 | 0 | 0.0 | 0.0 | 0.00 | 0.00 | 0.00 | 81 | 1013.4 |
| 20260508030402 | 40 | 0 | 0.0 | 0.0 | 0.00 | 0.00 | 0.00 | 79 | 1013.3 |
| 20260508030302 | 40 | 0 | 0.0 | 0.0 | 0.00 | 0.00 | 0.00 | 79 | 1013.3 |
| 20260508030202 | 41 | 0 | 0.0 | 0.0 | 0.00 | 0.00 | 0.00 | 79 | 1013.3 |
| 20260508030002 | 41 | 0 | 0.0 | 0.0 | 0.00 | 0.00 | 0.00 | 78 | 1013.3 |
| 20260508025902 | 41 | 0 | 0.0 | 0.0 | 0.00 | 0.00 | 0.00 | 78 | 1013.3 |
| 20260508025602 | 41 | 0 | 0.0 | 0.0 | 0.00 | 0.00 | 0.00 | 77 | 1013.3 |
| 20260508025502 | 41 | 0 | 0.0 | 0.0 | 0.00 | 0.00 | 0.00 | 76 | 1013.4 |
| 20260508025402 | 41 | 0 | 0.0 | 0.0 | 0.00 | 0.00 | 0.00 | 77 | 1013.3 |
| 20260508025305 | 41 | 0 | 0.0 | 0.0 | 0.00 | 0.00 | 0.00 | 77 | 1013.4 |
| 20260508025202 | 41 | 0 | 0.0 | 0.0 | 0.00 | 0.00 | 0.00 | 78 | 1013.4 |
| 20260508025102 | 41 | 0 | 0.0 | 0.0 | 0.00 | 0.00 | 0.00 | 78 | 1013.4 |
| 20260508024902 | 41 | 0 | 0.0 | 0.0 | 0.00 | 0.00 | 0.00 | 76 | 1013.3 |
| 20260508024802 | 41 | 0 | 0.0 | 0.0 | 0.00 | 0.00 | 0.00 | 76 | 1013.3 |
| 20260508024602 | 41 | 0 | 0.0 | 0.0 | 0.00 | 0.00 | 0.00 | 77 | 1013.2 |
| 20260508024423 | 40 | 0 | 0.0 | 0.0 | 0.00 | 0.00 | 0.00 | 79 | 1013.3 |
| 20260508024202 | 40 | 0 | 0.0 | 0.0 | 0.00 | 0.00 | 0.00 | 80 | 1013.3 |
| 20260508024102 | 40 | 0 | 0.0 | 0.0 | 0.00 | 0.00 | 0.00 | 80 | 1013.3 |
| 20260508023902 | 40 | 0 | 0.0 | 0.0 | 0.00 | 0.00 | 0.00 | 80 | 1013.3 |
| 20260508023602 | 40 | 0 | 0.0 | 0.0 | 0.00 | 0.00 | 0.00 | 79 | 1013.3 |
| 20260508023523 | 40 | 0 | 0.0 | 0.0 | 0.00 | 0.00 | 0.00 | 79 | 1013.5 |
| 20260508023102 | 41 | 0 | 0.0 | 0.0 | 0.00 | 0.00 | 0.00 | 79 | 1013.2 |
| 20260508022923 | 41 | 0 | 0.0 | 0.0 | 0.00 | 0.00 | 0.00 | 79 | 1013.3 |
| 20260508022003 | 40 | 0 | 0.0 | 0.0 | 0.00 | 0.00 | 0.00 | 80 | 1013.2 |
| 20260508021802 | 40 | 0 | 0.0 | 0.0 | 0.00 | 0.00 | 0.00 | 80 | 1013.3 |
| 20260508021602 | 40 | 0 | 0.0 | 0.0 | 0.00 | 0.00 | 0.00 | 80 | 1013.4 |
| 20260508021502 | 40 | 0 | 0.0 | 0.0 | 0.00 | 0.00 | 0.00 | 79 | 1013.3 |
| 20260508021402 | 40 | 0 | 0.0 | 0.0 | 0.00 | 0.00 | 0.00 | 79 | 1013.2 |
| 20260508020823 | 41 | 0 | 0.0 | 0.0 | 0.00 | 0.00 | 0.00 | 78 | 1013.1 |
| 20260508020602 | 41 | 0 | 0.0 | 0.0 | 0.00 | 0.00 | 0.00 | 78 | 1013.2 |
| 20260508020002 | 42 | 0 | 0.0 | 0.0 | 0.00 | 0.00 | 0.00 | 77 | 1013.2 |
| 20260508015902 | 42 | 0 | 0.0 | 0.0 | 0.00 | 0.00 | 0.00 | 76 | 1013.2 |
| 20260508015702 | 42 | 0 | 0.0 | 0.0 | 0.00 | 0.00 | 0.00 | 76 | 1013.2 |
| 20260508015602 | 42 | 0 | 0.0 | 0.0 | 0.00 | 0.00 | 0.00 | 76 | 1013.1 |
| 20260508015402 | 42 | 0 | 0.0 | 0.0 | 0.00 | 0.00 | 0.00 | 75 | 1013.3 |
| 20260508015202 | 42 | 0 | 0.0 | 0.0 | 0.00 | 0.00 | 0.00 | 76 | 1013.1 |
| 20260508015002 | 42 | 0 | 0.0 | 0.0 | 0.00 | 0.00 | 0.00 | 76 | 1013.2 |
| 20260508014702 | 42 | 0 | 0.0 | 0.0 | 0.00 | 0.00 | 0.00 | 75 | 1013.1 |
| 20260508014602 | 42 | 0 | 0.0 | 0.0 | 0.00 | 0.00 | 0.00 | 74 | 1013.2 |
| 20260508014502 | 42 | 0 | 0.0 | 0.0 | 0.00 | 0.00 | 0.00 | 74 | 1013.2 |
| 20260508014402 | 42 | 0 | 0.0 | 0.0 | 0.00 | 0.00 | 0.00 | 74 | 1013.2 |
| 20260508014102 | 43 | 0 | 0.0 | 0.0 | 0.00 | 0.00 | 0.00 | 73 | 1013.0 |
| 20260508013502 | 43 | 0 | 0.0 | 0.0 | 0.00 | 0.00 | 0.00 | 71 | 1012.9 |
| 20260508013402 | 43 | 0 | 0.0 | 0.0 | 0.00 | 0.00 | 0.00 | 71 | 1013.0 |
| 20260508013102 | 44 | 0 | 0.0 | 0.0 | 0.00 | 0.00 | 0.00 | 70 | 1013.1 |
| 20260508012902 | 44 | 0 | 0.0 | 0.0 | 0.00 | 0.00 | 0.00 | 69 | 1013.0 |
| 20260508012102 | 44 | 0 | 0.0 | 0.0 | 0.00 | 0.00 | 0.00 | 68 | 1013.1 |
| 20260508012002 | 44 | 0 | 0.0 | 0.0 | 0.00 | 0.00 | 0.00 | 68 | 1013.1 |
| 20260508011623 | 45 | 0 | 0.0 | 0.0 | 0.00 | 0.00 | 0.00 | 67 | 1013.0 |
| 20260508011402 | 45 | 0 | 0.0 | 0.0 | 0.00 | 0.00 | 0.00 | 66 | 1013.0 |
| 20260508011302 | 45 | 0 | 0.0 | 0.0 | 0.00 | 0.00 | 0.00 | 67 | 1012.9 |
| 20260508011102 | 45 | 0 | 0.0 | 0.0 | 0.00 | 0.00 | 0.00 | 65 | 1013.1 |
| 20260508011002 | 45 | 0 | 0.0 | 0.0 | 0.00 | 0.00 | 0.00 | 65 | 1012.9 |
| 20260508010824 | 46 | 0 | 0.0 | 0.0 | 0.00 | 0.00 | 0.00 | 65 | 1013.1 |
| 20260508010702 | 46 | 0 | 0.0 | 0.0 | 0.00 | 0.00 | 0.00 | 64 | 1012.9 |
| 20260508010602 | 46 | 0 | 0.0 | 0.0 | 0.00 | 0.00 | 0.00 | 64 | 1012.9 |
| 20260508010002 | 47 | 0 | 0.0 | 0.0 | 0.00 | 0.00 | 0.00 | 61 | 1012.8 |
| 20260508005902 | 47 | 0 | 0.0 | 0.0 | 0.00 | 0.00 | 0.00 | 60 | 1012.9 |
| 20260508005702 | 47 | 0 | 0.0 | 0.0 | 0.00 | 0.00 | 0.00 | 58 | 1012.8 |
| 20260508005402 | 48 | 0 | 0.0 | 0.0 | 0.00 | 0.00 | 0.00 | 57 | 1012.8 |
| 20260508005202 | 48 | 0 | 0.0 | 0.0 | 0.00 | 0.00 | 0.00 | 56 | 1012.9 |
| 20260508004923 | 49 | 0 | 0.0 | 0.0 | 0.00 | 0.00 | 0.00 | 54 | 1012.9 |
| 20260508004702 | 49 | 0 | 0.0 | 0.0 | 0.00 | 0.00 | 0.00 | 51 | 1012.8 |
| 20260508004602 | 49 | 0 | 0.0 | 0.0 | 0.00 | 0.00 | 0.00 | 51 | 1012.9 |
| 20260508004402 | 50 | 0 | 0.0 | 0.0 | 0.00 | 0.00 | 0.00 | 52 | 1013.0 |
| 20260508004302 | 50 | 0 | 0.0 | 0.0 | 0.00 | 0.00 | 0.00 | 50 | 1013.0 |
| 20260508004123 | 50 | 0 | 0.0 | 0.0 | 0.00 | 0.00 | 0.00 | 50 | 1013.1 |
| 20260508004002 | 50 | 111 | 0.0 | 1.0 | 0.00 | 0.00 | 0.00 | 49 | 1012.9 |
| 20260508003802 | 50 | 111 | 0.0 | 2.0 | 0.00 | 0.00 | 0.00 | 48 | 1013.0 |
| 20260508003402 | 50 | 194 | 1.0 | 6.0 | 0.00 | 0.00 | 0.00 | 48 | 1013.1 |
| 20260508002803 | 51 | 96 | 2.0 | 6.0 | 0.00 | 0.00 | 0.00 | 47 | 1012.9 |
| 20260508002502 | 51 | 229 | 2.0 | 6.0 | 0.00 | 0.00 | 0.00 | 46 | 1012.8 |
| 20260508002423 | 51 | 59 | 2.0 | 6.0 | 0.00 | 0.00 | 0.00 | 48 | 1012.9 |
| 20260508002002 | 51 | 206 | 2.0 | 6.0 | 0.00 | 0.00 | 0.00 | 46 | 1012.8 |
| 20260508001802 | 52 | 245 | 2.0 | 6.0 | 0.00 | 0.00 | 0.00 | 46 | 1012.6 |
| 20260508001502 | 52 | 276 | 2.0 | 7.0 | 0.00 | 0.00 | 0.00 | 46 | 1012.7 |
| 20260508001402 | 52 | 255 | 2.0 | 7.0 | 0.00 | 0.00 | 0.00 | 47 | 1012.7 |
| 20260508001223 | 52 | 263 | 2.0 | 7.0 | 0.00 | 0.00 | 0.00 | 46 | 1012.7 |
| 20260508001102 | 52 | 278 | 3.0 | 7.0 | 0.00 | 0.00 | 0.00 | 46 | 1012.7 |
| 20260508000902 | 52 | 300 | 3.0 | 7.0 | 0.00 | 0.00 | 0.00 | 45 | 1012.6 |
| 20260508000404 | 53 | 15 | 2.0 | 7.0 | 0.00 | 0.00 | 0.00 | 45 | 1012.7 |
| 20260508000304 | 53 | 21 | 2.0 | 7.0 | 0.00 | 0.00 | 0.00 | 44 | 1012.6 |
| 20260508000204 | 53 | 42 | 2.0 | 7.0 | 0.00 | 0.00 | 0.00 | 44 | 1012.6 |
| 20260508000123 | 53 | 41 | 2.0 | 7.0 | 0.00 | 0.00 | 0.00 | 44 | 1012.6 |
| 20260508000002 | 53 | 78 | 3.0 | 8.0 | 0.00 | 0.00 | 0.00 | 44 | 1012.4 |
| 20260507235602 | 53 | 6 | 3.0 | 10.0 | 0.00 | 0.00 | 0.00 | 44 | 1012.4 |
| 20260507235402 | 53 | 5 | 3.0 | 10.0 | 0.00 | 0.00 | 0.00 | 44 | 1012.5 |
| 20260507235202 | 53 | 357 | 3.0 | 10.0 | 0.00 | 0.00 | 0.00 | 44 | 1012.5 |
| 20260507235002 | 53 | 346 | 3.0 | 10.0 | 0.00 | 0.00 | 0.00 | 46 | 1012.6 |
| 20260507234902 | 54 | 332 | 3.0 | 10.0 | 0.00 | 0.00 | 0.00 | 44 | 1012.5 |
| 20260507233823 | 54 | 325 | 3.0 | 9.0 | 0.00 | 0.00 | 0.00 | 43 | 1012.3 |
| 20260507233602 | 54 | 328 | 4.0 | 9.0 | 0.00 | 0.00 | 0.00 | 44 | 1012.6 |
| 20260507233202 | 54 | 297 | 4.0 | 9.0 | 0.00 | 0.00 | 0.00 | 43 | 1012.4 |
| 20260507233102 | 54 | 307 | 4.0 | 9.0 | 0.00 | 0.00 | 0.00 | 44 | 1012.5 |
| 20260507232602 | 54 | 313 | 4.0 | 11.0 | 0.00 | 0.00 | 0.00 | 42 | 1012.4 |
| 20260507232523 | 54 | 313 | 4.0 | 11.0 | 0.00 | 0.00 | 0.00 | 43 | 1012.6 |
| 20260507232402 | 54 | 325 | 5.0 | 11.0 | 0.00 | 0.00 | 0.00 | 42 | 1012.7 |
| 20260507232102 | 54 | 321 | 5.0 | 11.0 | 0.00 | 0.00 | 0.00 | 42 | 1012.5 |
| 20260507231923 | 54 | 310 | 6.0 | 15.0 | 0.00 | 0.00 | 0.00 | 42 | 1012.5 |
| 20260507231802 | 54 | 300 | 6.0 | 15.0 | 0.00 | 0.00 | 0.00 | 43 | 1012.4 |
| 20260507231702 | 54 | 292 | 5.0 | 15.0 | 0.00 | 0.00 | 0.00 | 42 | 1012.5 |
| 20260507231602 | 54 | 294 | 6.0 | 15.0 | 0.00 | 0.00 | 0.00 | 42 | 1012.5 |
| 20260507231502 | 54 | 297 | 5.0 | 15.0 | 0.00 | 0.00 | 0.00 | 43 | 1012.4 |
| 20260507231323 | 54 | 299 | 5.0 | 15.0 | 0.00 | 0.00 | 0.00 | 44 | 1012.5 |
| 20260507231002 | 54 | 300 | 5.0 | 15.0 | 0.00 | 0.00 | 0.00 | 42 | 1012.5 |
| 20260507230902 | 54 | 308 | 5.0 | 14.0 | 0.00 | 0.00 | 0.00 | 42 | 1012.4 |
| 20260507230602 | 54 | 318 | 6.0 | 14.0 | 0.00 | 0.00 | 0.00 | 42 | 1012.4 |
| 20260507230502 | 54 | 312 | 6.0 | 14.0 | 0.00 | 0.00 | 0.00 | 43 | 1012.5 |
| 20260507230302 | 54 | 307 | 6.0 | 14.0 | 0.00 | 0.00 | 0.00 | 43 | 1012.6 |
| 20260507230202 | 54 | 300 | 6.0 | 14.0 | 0.00 | 0.00 | 0.00 | 42 | 1012.6 |
| 20260507230003 | 54 | 302 | 6.0 | 13.0 | 0.00 | 0.00 | 0.00 | 42 | 1012.6 |
| 20260507225802 | 54 | 290 | 6.0 | 15.0 | 0.00 | 0.00 | 0.00 | 42 | 1012.6 |
| 20260507225723 | 54 | 288 | 6.0 | 17.0 | 0.00 | 0.00 | 0.00 | 43 | 1012.7 |
| 20260507225602 | 55 | 286 | 7.0 | 17.0 | 0.00 | 0.00 | 0.00 | 42 | 1012.8 |
| 20260507225102 | 54 | 288 | 6.0 | 17.0 | 0.00 | 0.00 | 0.00 | 42 | 1012.6 |
| 20260507225002 | 54 | 294 | 6.0 | 17.0 | 0.00 | 0.00 | 0.00 | 41 | 1012.5 |
| 20260507224903 | 55 | 300 | 6.0 | 17.0 | 0.00 | 0.00 | 0.00 | 42 | 1012.7 |
| 20260507224702 | 55 | 316 | 5.0 | 14.0 | 0.00 | 0.00 | 0.00 | 42 | 1012.4 |
| 20260507224602 | 55 | 316 | 5.0 | 11.0 | 0.00 | 0.00 | 0.00 | 41 | 1012.6 |
| 20260507224302 | 55 | 303 | 5.0 | 9.0 | 0.00 | 0.00 | 0.00 | 42 | 1012.6 |
| 20260507224202 | 55 | 305 | 5.0 | 9.0 | 0.00 | 0.00 | 0.00 | 41 | 1012.5 |
| 20260507224002 | 56 | 306 | 4.0 | 9.0 | 0.00 | 0.00 | 0.00 | 41 | 1012.6 |
| 20260507223602 | 55 | 280 | 5.0 | 13.0 | 0.00 | 0.00 | 0.00 | 42 | 1012.8 |
| 20260507223402 | 56 | 273 | 6.0 | 13.0 | 0.00 | 0.00 | 0.00 | 41 | 1012.5 |
| 20260507223323 | 56 | 281 | 6.0 | 13.0 | 0.00 | 0.00 | 0.00 | 41 | 1012.6 |
| 20260507223102 | 55 | 270 | 6.0 | 15.0 | 0.00 | 0.00 | 0.00 | 44 | 1012.7 |
| 20260507223002 | 55 | 267 | 7.0 | 17.0 | 0.00 | 0.00 | 0.00 | 41 | 1012.7 |
| 20260507222823 | 55 | 261 | 7.0 | 18.0 | 0.00 | 0.00 | 0.00 | 41 | 1012.5 |
| 20260507222723 | 55 | 259 | 7.0 | 18.0 | 0.00 | 0.00 | 0.00 | 41 | 1012.7 |
| 20260507222602 | 55 | 266 | 7.0 | 18.0 | 0.00 | 0.00 | 0.00 | 40 | 1012.5 |
| 20260507222502 | 55 | 264 | 7.0 | 18.0 | 0.00 | 0.00 | 0.00 | 41 | 1012.4 |
| 20260507222202 | 55 | 265 | 7.0 | 18.0 | 0.00 | 0.00 | 0.00 | 42 | 1012.6 |
| 20260507222102 | 55 | 264 | 7.0 | 18.0 | 0.00 | 0.00 | 0.00 | 40 | 1012.7 |
| 20260507222023 | 55 | 267 | 7.0 | 18.0 | 0.00 | 0.00 | 0.00 | 40 | 1012.5 |
| 20260507221902 | 55 | 269 | 7.0 | 16.0 | 0.00 | 0.00 | 0.00 | 40 | 1012.6 |
| 20260507221802 | 55 | 271 | 6.0 | 16.0 | 0.00 | 0.00 | 0.00 | 40 | 1012.7 |
| 20260507221702 | 55 | 281 | 6.0 | 16.0 | 0.00 | 0.00 | 0.00 | 40 | 1012.7 |
| 20260507221602 | 55 | 282 | 6.0 | 16.0 | 0.00 | 0.00 | 0.00 | 41 | 1012.6 |
| 20260507221102 | 55 | 310 | 6.0 | 16.0 | 0.00 | 0.00 | 0.00 | 40 | 1012.7 |
| 20260507220623 | 55 | 327 | 6.0 | 18.0 | 0.00 | 0.00 | 0.00 | 43 | 1012.5 |
| 20260507220502 | 55 | 315 | 6.0 | 18.0 | 0.00 | 0.00 | 0.00 | 41 | 1012.4 |
| 20260507220302 | 55 | 320 | 6.0 | 18.0 | 0.00 | 0.00 | 0.00 | 43 | 1012.5 |
| 20260507220002 | 56 | 318 | 6.0 | 18.0 | 0.00 | 0.00 | 0.00 | 42 | 1012.5 |
| 20260507215702 | 55 | 331 | 6.0 | 13.0 | 0.00 | 0.00 | 0.00 | 45 | 1012.3 |
| 20260507215602 | 55 | 334 | 6.0 | 13.0 | 0.00 | 0.00 | 0.00 | 43 | 1012.5 |
| 20260507215502 | 55 | 347 | 6.0 | 13.0 | 0.00 | 0.00 | 0.00 | 44 | 1012.3 |
| 20260507215402 | 56 | 353 | 6.0 | 14.0 | 0.00 | 0.00 | 0.00 | 43 | 1012.3 |
| 20260507215323 | 56 | 348 | 6.0 | 14.0 | 0.00 | 0.00 | 0.00 | 44 | 1012.2 |
| 20260507215202 | 56 | 353 | 6.0 | 16.0 | 0.00 | 0.00 | 0.00 | 44 | 1012.4 |
| 20260507215102 | 56 | 348 | 7.0 | 17.0 | 0.00 | 0.00 | 0.00 | 45 | 1012.6 |
| 20260507214702 | 55 | 315 | 7.0 | 17.0 | 0.00 | 0.00 | 0.00 | 47 | 1012.5 |
| 20260507214623 | 55 | 312 | 6.0 | 17.0 | 0.00 | 0.00 | 0.00 | 48 | 1012.6 |
| 20260507214102 | 54 | 296 | 5.0 | 15.0 | 0.00 | 0.00 | 0.00 | 49 | 1012.4 |
| 20260507214002 | 54 | 301 | 5.0 | 11.0 | 0.00 | 0.00 | 0.00 | 50 | 1012.3 |
| 20260507213702 | 53 | 298 | 6.0 | 14.0 | 0.00 | 0.00 | 0.00 | 52 | 1012.2 |
| 20260507213423 | 53 | 301 | 6.0 | 14.0 | 0.00 | 0.00 | 0.00 | 51 | 1012.4 |
| 20260507213102 | 53 | 282 | 6.0 | 14.0 | 0.00 | 0.00 | 0.00 | 51 | 1012.4 |
| 20260507213002 | 53 | 287 | 6.0 | 14.0 | 0.00 | 0.00 | 0.00 | 51 | 1012.3 |
| 20260507212902 | 54 | 290 | 5.0 | 14.0 | 0.00 | 0.00 | 0.00 | 50 | 1012.2 |
| 20260507212802 | 54 | 293 | 5.0 | 14.0 | 0.00 | 0.00 | 0.00 | 53 | 1012.3 |
| 20260507212702 | 53 | 281 | 6.0 | 14.0 | 0.00 | 0.00 | 0.00 | 52 | 1012.3 |
| 20260507212623 | 53 | 278 | 6.0 | 14.0 | 0.00 | 0.00 | 0.00 | 53 | 1012.4 |
| 20260507212323 | 54 | 275 | 6.0 | 14.0 | 0.00 | 0.00 | 0.00 | 52 | 1012.3 |
| 20260507211423 | 55 | 281 | 6.0 | 17.0 | 0.00 | 0.00 | 0.00 | 50 | 1012.3 |
| 20260507211002 | 53 | 294 | 6.0 | 17.0 | 0.00 | 0.00 | 0.00 | 52 | 1012.2 |
| 20260507210702 | 54 | 279 | 5.0 | 15.0 | 0.00 | 0.00 | 0.00 | 52 | 1012.3 |
| 20260507210523 | 56 | 269 | 4.0 | 10.0 | 0.00 | 0.00 | 0.00 | 51 | 1012.2 |
| 20260507210423 | 56 | 247 | 4.0 | 9.0 | 0.00 | 0.00 | 0.00 | 50 | 1011.9 |
| 20260507210202 | 55 | 221 | 3.0 | 7.0 | 0.00 | 0.00 | 0.00 | 51 | 1011.8 |
| 20260507205402 | 52 | 12 | 3.0 | 8.0 | 0.00 | 0.00 | 0.00 | 59 | 1011.8 |
| 20260507205202 | 52 | 6 | 3.0 | 8.0 | 0.00 | 0.00 | 0.00 | 60 | 1012.0 |
| 20260507205102 | 52 | 3 | 3.0 | 8.0 | 0.00 | 0.00 | 0.00 | 58 | 1011.9 |
| 20260507204902 | 52 | 18 | 3.0 | 8.0 | 0.00 | 0.00 | 0.00 | 59 | 1011.8 |
| 20260507204502 | 52 | 16 | 4.0 | 8.0 | 0.00 | 0.00 | 0.00 | 58 | 1011.9 |
| 20260507204102 | 52 | 15 | 3.0 | 8.0 | 0.00 | 0.00 | 0.00 | 59 | 1011.8 |
| 20260507203602 | 53 | 7 | 4.0 | 9.0 | 0.00 | 0.00 | 0.00 | 58 | 1011.9 |
| 20260507203402 | 52 | 16 | 4.0 | 9.0 | 0.00 | 0.00 | 0.00 | 57 | 1012.0 |
| 20260507203123 | 52 | 23 | 4.0 | 9.0 | 0.00 | 0.00 | 0.00 | 57 | 1011.9 |
| 20260507203024 | 52 | 26 | 4.0 | 9.0 | 0.00 | 0.00 | 0.00 | 58 | 1011.9 |
| 20260507202802 | 53 | 32 | 4.0 | 10.0 | 0.00 | 0.00 | 0.00 | 57 | 1011.9 |
| 20260507202623 | 53 | 29 | 4.0 | 10.0 | 0.00 | 0.00 | 0.00 | 57 | 1011.8 |
| 20260507202502 | 53 | 29 | 3.0 | 10.0 | 0.00 | 0.00 | 0.00 | 57 | 1011.7 |
| 20260507202402 | 53 | 26 | 3.0 | 10.0 | 0.00 | 0.00 | 0.00 | 57 | 1011.7 |
| 20260507202306 | 53 | 26 | 3.0 | 10.0 | 0.00 | 0.00 | 0.00 | 57 | 1011.9 |
| 20260507201902 | 54 | 12 | 4.0 | 10.0 | 0.00 | 0.00 | 0.00 | 55 | 1011.7 |
| 20260507201602 | 54 | 18 | 3.0 | 7.0 | 0.00 | 0.00 | 0.00 | 55 | 1011.8 |
| 20260507201423 | 54 | 26 | 3.0 | 7.0 | 0.00 | 0.00 | 0.00 | 53 | 1011.9 |
| 20260507201102 | 53 | 37 | 3.0 | 7.0 | 0.00 | 0.00 | 0.00 | 55 | 1011.8 |
| 20260507200923 | 53 | 39 | 3.0 | 7.0 | 0.00 | 0.00 | 0.00 | 56 | 1011.6 |
| 20260507200802 | 53 | 40 | 3.0 | 7.0 | 0.00 | 0.00 | 0.00 | 55 | 1011.5 |
| 20260507200602 | 53 | 36 | 3.0 | 7.0 | 0.00 | 0.00 | 0.00 | 54 | 1011.7 |
| 20260507200402 | 53 | 31 | 3.0 | 7.0 | 0.00 | 0.00 | 0.00 | 56 | 1011.7 |
| 20260507200202 | 53 | 35 | 3.0 | 7.0 | 0.00 | 0.00 | 0.00 | 54 | 1011.5 |
| 20260507195602 | 54 | 353 | 3.0 | 7.0 | 0.00 | 0.00 | 0.00 | 54 | 1011.6 |
| 20260507195502 | 54 | 337 | 3.0 | 7.0 | 0.00 | 0.00 | 0.00 | 53 | 1011.9 |
| 20260507195305 | 54 | 335 | 3.0 | 7.0 | 0.00 | 0.00 | 0.00 | 56 | 1011.8 |
| 20260507195102 | 54 | 340 | 3.0 | 8.0 | 0.00 | 0.00 | 0.00 | 54 | 1011.8 |
| 20260507195002 | 54 | 338 | 3.0 | 8.0 | 0.00 | 0.00 | 0.00 | 55 | 1011.6 |
| 20260507194902 | 54 | 353 | 3.0 | 8.0 | 0.00 | 0.00 | 0.00 | 55 | 1011.9 |
| 20260507194802 | 54 | 340 | 3.0 | 8.0 | 0.00 | 0.00 | 0.00 | 54 | 1011.7 |
| 20260507194202 | 55 | 42 | 3.0 | 9.0 | 0.00 | 0.00 | 0.00 | 53 | 1011.9 |
| 20260507194102 | 55 | 72 | 3.0 | 9.0 | 0.00 | 0.00 | 0.00 | 53 | 1011.8 |
| 20260507194002 | 54 | 20 | 3.0 | 9.0 | 0.00 | 0.00 | 0.00 | 54 | 1011.7 |
| 20260507193702 | 54 | 40 | 3.0 | 9.0 | 0.00 | 0.00 | 0.00 | 52 | 1012.0 |
| 20260507193602 | 54 | 44 | 3.0 | 9.0 | 0.00 | 0.00 | 0.00 | 55 | 1011.9 |
| 20260507193423 | 54 | 9 | 3.0 | 9.0 | 0.00 | 0.00 | 0.00 | 54 | 1011.9 |
| 20260507193202 | 54 | 18 | 3.0 | 8.0 | 0.00 | 0.00 | 0.00 | 56 | 1011.9 |
| 20260507193102 | 54 | 22 | 3.0 | 8.0 | 0.00 | 0.00 | 0.00 | 52 | 1011.8 |
| 20260507192902 | 54 | 18 | 4.0 | 8.0 | 0.00 | 0.00 | 0.00 | 52 | 1012.2 |
| 20260507192802 | 54 | 14 | 4.0 | 8.0 | 0.00 | 0.00 | 0.00 | 51 | 1012.0 |
| 20260507192402 | 54 | 348 | 3.0 | 8.0 | 0.00 | 0.00 | 0.00 | 53 | 1011.9 |
| 20260507192305 | 54 | 354 | 3.0 | 8.0 | 0.00 | 0.00 | 0.00 | 53 | 1012.2 |
| 20260507192102 | 54 | 334 | 3.0 | 8.0 | 0.00 | 0.00 | 0.00 | 53 | 1012.0 |
| 20260507192002 | 54 | 344 | 3.0 | 8.0 | 0.00 | 0.00 | 0.00 | 54 | 1012.0 |
| 20260507191902 | 54 | 16 | 3.0 | 8.0 | 0.00 | 0.00 | 0.00 | 53 | 1012.0 |
| 20260507191602 | 55 | 343 | 4.0 | 8.0 | 0.00 | 0.00 | 0.00 | 52 | 1011.9 |
| 20260507191423 | 56 | 8 | 3.0 | 7.0 | 0.00 | 0.00 | 0.00 | 51 | 1012.2 |
| 20260507191302 | 56 | 13 | 3.0 | 7.0 | 0.00 | 0.00 | 0.00 | 50 | 1011.9 |
| 20260507191102 | 55 | 10 | 3.0 | 7.0 | 0.00 | 0.00 | 0.00 | 50 | 1011.8 |
| 20260507191002 | 55 | 4 | 3.0 | 7.0 | 0.00 | 0.00 | 0.00 | 52 | 1011.9 |
| 20260507190702 | 55 | 21 | 3.0 | 6.0 | 0.00 | 0.00 | 0.00 | 51 | 1012.2 |
| 20260507190502 | 54 | 2 | 3.0 | 11.0 | 0.00 | 0.00 | 0.00 | 52 | 1012.2 |
| 20260507190402 | 53 | 360 | 4.0 | 11.0 | 0.00 | 0.00 | 0.00 | 51 | 1012.2 |
| 20260507190303 | 53 | 346 | 4.0 | 11.0 | 0.00 | 0.00 | 0.00 | 53 | 1012.3 |
| 20260507190202 | 53 | 343 | 4.0 | 11.0 | 0.00 | 0.00 | 0.00 | 51 | 1012.0 |
| 20260507190004 | 53 | 355 | 3.0 | 11.0 | 0.00 | 0.00 | 0.00 | 52 | 1012.2 |
| 20260507185902 | 53 | 354 | 3.0 | 11.0 | 0.00 | 0.00 | 0.00 | 52 | 1012.0 |
| 20260507185723 | 54 | 329 | 3.0 | 11.0 | 0.00 | 0.00 | 0.00 | 52 | 1012.3 |
| 20260507185623 | 54 | 333 | 3.0 | 11.0 | 0.00 | 0.00 | 0.00 | 53 | 1011.9 |
| 20260507185502 | 54 | 11 | 3.0 | 9.0 | 0.00 | 0.00 | 0.00 | 50 | 1011.9 |
| 20260507185423 | 54 | 3 | 3.0 | 9.0 | 0.00 | 0.00 | 0.00 | 51 | 1012.0 |
| 20260507185305 | 53 | 15 | 3.0 | 9.0 | 0.00 | 0.00 | 0.00 | 53 | 1012.0 |
| 20260507185102 | 53 | 359 | 4.0 | 9.0 | 0.00 | 0.00 | 0.00 | 52 | 1012.3 |
| 20260507185002 | 53 | 355 | 4.0 | 9.0 | 0.00 | 0.00 | 0.00 | 51 | 1012.2 |
| 20260507184902 | 53 | 2 | 4.0 | 9.0 | 0.00 | 0.00 | 0.00 | 50 | 1012.3 |
| 20260507184802 | 53 | 13 | 4.0 | 9.0 | 0.00 | 0.00 | 0.00 | 50 | 1012.2 |
| 20260507184102 | 53 | 12 | 4.0 | 10.0 | 0.00 | 0.00 | 0.00 | 50 | 1012.3 |
| 20260507183902 | 53 | 8 | 4.0 | 10.0 | 0.00 | 0.00 | 0.00 | 51 | 1012.3 |
| 20260507183702 | 53 | 3 | 4.0 | 10.0 | 0.00 | 0.00 | 0.00 | 51 | 1012.3 |
| 20260507183602 | 53 | 357 | 4.0 | 10.0 | 0.00 | 0.00 | 0.00 | 51 | 1012.3 |
| 20260507182902 | 54 | 26 | 4.0 | 9.0 | 0.00 | 0.00 | 0.00 | 51 | 1012.0 |
| 20260507182602 | 54 | 35 | 3.0 | 8.0 | 0.00 | 0.00 | 0.00 | 48 | 1012.0 |
| 20260507182523 | 54 | 50 | 3.0 | 8.0 | 0.00 | 0.00 | 0.00 | 49 | 1012.3 |
| 20260507182402 | 54 | 52 | 3.0 | 9.0 | 0.00 | 0.00 | 0.00 | 49 | 1012.3 |
| 20260507182102 | 54 | 21 | 3.0 | 9.0 | 0.00 | 0.00 | 0.00 | 49 | 1012.3 |
| 20260507181802 | 53 | 31 | 3.0 | 9.0 | 0.00 | 0.00 | 0.00 | 50 | 1012.3 |
| 20260507181623 | 53 | 29 | 3.0 | 9.0 | 0.00 | 0.00 | 0.00 | 51 | 1012.3 |
| 20260507181502 | 53 | 17 | 4.0 | 9.0 | 0.00 | 0.00 | 0.00 | 49 | 1012.3 |
| 20260507181202 | 53 | 10 | 4.0 | 10.0 | 0.00 | 0.00 | 0.00 | 49 | 1012.2 |
| 20260507181102 | 53 | 16 | 4.0 | 10.0 | 0.00 | 0.00 | 0.00 | 52 | 1012.3 |
| 20260507180702 | 53 | 1 | 5.0 | 10.0 | 0.00 | 0.00 | 0.00 | 51 | 1012.2 |
| 20260507180623 | 53 | 354 | 5.0 | 10.0 | 0.00 | 0.00 | 0.00 | 49 | 1012.3 |
| 20260507180402 | 53 | 344 | 5.0 | 10.0 | 0.00 | 0.00 | 0.00 | 50 | 1012.2 |
| 20260507180302 | 54 | 348 | 5.0 | 10.0 | 0.00 | 0.00 | 0.00 | 50 | 1012.2 |
| 20260507175802 | 55 | 310 | 5.0 | 11.0 | 0.00 | 0.00 | 0.00 | 52 | 1012.2 |
| 20260507175502 | 55 | 323 | 5.0 | 11.0 | 0.00 | 0.00 | 0.00 | 52 | 1012.4 |
| 20260507175306 | 55 | 314 | 5.0 | 11.0 | 0.00 | 0.00 | 0.00 | 50 | 1012.5 |
| 20260507175123 | 55 | 338 | 4.0 | 10.0 | 0.00 | 0.00 | 0.00 | 52 | 1012.2 |
| 20260507175002 | 56 | 343 | 4.0 | 10.0 | 0.00 | 0.00 | 0.00 | 52 | 1012.2 |
| 20260507174902 | 56 | 354 | 4.0 | 10.0 | 0.00 | 0.00 | 0.00 | 49 | 1012.4 |
| 20260507174702 | 56 | 9 | 4.0 | 10.0 | 0.00 | 0.00 | 0.00 | 50 | 1012.2 |
| 20260507174623 | 55 | 8 | 4.0 | 8.0 | 0.00 | 0.00 | 0.00 | 53 | 1012.2 |
| 20260507174402 | 54 | 24 | 4.0 | 8.0 | 0.00 | 0.00 | 0.00 | 52 | 1012.3 |
| 20260507174302 | 54 | 26 | 4.0 | 10.0 | 0.00 | 0.00 | 0.00 | 50 | 1012.3 |
| 20260507174123 | 54 | 33 | 4.0 | 10.0 | 0.00 | 0.00 | 0.00 | 50 | 1012.2 |
| 20260507173502 | 55 | 16 | 4.0 | 11.0 | 0.00 | 0.00 | 0.00 | 52 | 1012.3 |
| 20260507173423 | 55 | 3 | 4.0 | 11.0 | 0.00 | 0.00 | 0.00 | 50 | 1012.3 |
| 20260507173002 | 54 | 336 | 4.0 | 9.0 | 0.00 | 0.00 | 0.00 | 52 | 1012.5 |
| 20260507172902 | 54 | 320 | 4.0 | 9.0 | 0.00 | 0.00 | 0.00 | 53 | 1012.3 |
| 20260507172602 | 54 | 301 | 5.0 | 10.0 | 0.00 | 0.00 | 0.00 | 52 | 1012.5 |
| 20260507172523 | 54 | 299 | 5.0 | 10.0 | 0.00 | 0.00 | 0.00 | 52 | 1012.4 |
| 20260507172323 | 54 | 305 | 5.0 | 10.0 | 0.00 | 0.00 | 0.00 | 54 | 1012.3 |
| 20260507172202 | 55 | 296 | 4.0 | 10.0 | 0.00 | 0.00 | 0.00 | 53 | 1012.4 |
| 20260507172123 | 55 | 296 | 4.0 | 10.0 | 0.00 | 0.00 | 0.00 | 51 | 1012.4 |
| 20260507172002 | 55 | 286 | 4.0 | 10.0 | 0.00 | 0.00 | 0.00 | 53 | 1012.4 |
| 20260507171902 | 54 | 286 | 4.0 | 10.0 | 0.00 | 0.00 | 0.00 | 58 | 1012.3 |
| 20260507171802 | 54 | 294 | 4.0 | 10.0 | 0.00 | 0.00 | 0.00 | 54 | 1012.3 |
| 20260507171702 | 54 | 295 | 3.0 | 10.0 | 0.00 | 0.00 | 0.00 | 53 | 1012.2 |
| 20260507171623 | 54 | 307 | 3.0 | 10.0 | 0.00 | 0.00 | 0.00 | 54 | 1012.3 |
| 20260507171502 | 54 | 297 | 3.0 | 7.0 | 0.00 | 0.00 | 0.00 | 54 | 1012.4 |
| 20260507171423 | 54 | 294 | 3.0 | 7.0 | 0.00 | 0.00 | 0.00 | 55 | 1012.5 |
| 20260507171202 | 54 | 329 | 3.0 | 7.0 | 0.00 | 0.00 | 0.00 | 56 | 1012.4 |
| 20260507171102 | 54 | 339 | 3.0 | 7.0 | 0.00 | 0.00 | 0.00 | 56 | 1012.4 |
| 20260507170902 | 53 | 3 | 3.0 | 9.0 | 0.00 | 0.00 | 0.00 | 58 | 1012.5 |
| 20260507170802 | 53 | 345 | 4.0 | 11.0 | 0.00 | 0.00 | 0.00 | 58 | 1012.5 |
| 20260507170602 | 54 | 347 | 4.0 | 11.0 | 0.00 | 0.00 | 0.00 | 56 | 1012.3 |
| 20260507170502 | 54 | 358 | 4.0 | 11.0 | 0.00 | 0.00 | 0.00 | 57 | 1012.5 |
| 20260507170402 | 53 | 349 | 4.0 | 11.0 | 0.00 | 0.00 | 0.00 | 58 | 1012.6 |
| 20260507170002 | 54 | 340 | 5.0 | 11.0 | 0.00 | 0.00 | 0.00 | 55 | 1012.4 |
| 20260507165402 | 56 | 307 | 4.0 | 11.0 | 0.00 | 0.00 | 0.00 | 54 | 1012.3 |
| 20260507165102 | 56 | 276 | 5.0 | 11.0 | 0.00 | 0.00 | 0.00 | 54 | 1012.3 |
| 20260507164902 | 54 | 270 | 5.0 | 11.0 | 0.00 | 0.00 | 0.00 | 56 | 1012.4 |
| 20260507164602 | 54 | 290 | 5.0 | 11.0 | 0.00 | 0.00 | 0.00 | 56 | 1012.4 |
| 20260507164423 | 54 | 302 | 5.0 | 11.0 | 0.00 | 0.00 | 0.00 | 55 | 1012.4 |
| 20260507164202 | 54 | 343 | 4.0 | 9.0 | 0.00 | 0.00 | 0.00 | 56 | 1012.4 |
| 20260507164102 | 54 | 7 | 4.0 | 8.0 | 0.00 | 0.00 | 0.00 | 56 | 1012.6 |
| 20260507164002 | 53 | 19 | 4.0 | 8.0 | 0.00 | 0.00 | 0.00 | 58 | 1012.6 |
| 20260507163602 | 54 | 334 | 4.0 | 10.0 | 0.00 | 0.00 | 0.00 | 57 | 1012.4 |
| 20260507163102 | 54 | 334 | 4.0 | 10.0 | 0.00 | 0.00 | 0.00 | 58 | 1012.7 |
| 20260507162902 | 54 | 316 | 4.0 | 10.0 | 0.00 | 0.00 | 0.00 | 56 | 1012.6 |
| 20260507162502 | 55 | 333 | 4.0 | 10.0 | 0.00 | 0.00 | 0.00 | 56 | 1012.2 |
| 20260507162402 | 54 | 343 | 4.0 | 10.0 | 0.00 | 0.00 | 0.00 | 57 | 1012.2 |
| 20260507162306 | 54 | 334 | 4.0 | 10.0 | 0.00 | 0.00 | 0.00 | 56 | 1012.4 |
| 20260507162102 | 53 | 306 | 5.0 | 11.0 | 0.00 | 0.00 | 0.00 | 55 | 1012.3 |
| 20260507161702 | 54 | 294 | 5.0 | 11.0 | 0.00 | 0.00 | 0.00 | 54 | 1012.3 |
| 20260507161602 | 54 | 286 | 5.0 | 11.0 | 0.00 | 0.00 | 0.00 | 53 | 1012.3 |
| 20260507161502 | 54 | 279 | 6.0 | 11.0 | 0.00 | 0.00 | 0.00 | 53 | 1012.3 |
| 20260507161102 | 54 | 284 | 5.0 | 11.0 | 0.00 | 0.00 | 0.00 | 53 | 1012.2 |
| 20260507160902 | 55 | 283 | 5.0 | 11.0 | 0.00 | 0.00 | 0.00 | 52 | 1012.3 |
| 20260507160802 | 56 | 291 | 5.0 | 11.0 | 0.00 | 0.00 | 0.00 | 50 | 1012.3 |
| 20260507160602 | 57 | 319 | 4.0 | 10.0 | 0.00 | 0.00 | 0.00 | 43 | 1012.4 |
| 20260507160002 | 56 | 331 | 3.0 | 8.0 | 0.00 | 0.00 | 0.00 | 45 | 1012.3 |
| 20260507155703 | 55 | 248 | 2.0 | 8.0 | 0.00 | 0.00 | 0.00 | 44 | 1012.3 |
| 20260507155602 | 55 | 70 | 2.0 | 8.0 | 0.00 | 0.00 | 0.00 | 46 | 1012.5 |
| 20260507155402 | 55 | 135 | 2.0 | 8.0 | 0.00 | 0.00 | 0.00 | 46 | 1012.4 |
| 20260507155102 | 56 | 334 | 2.0 | 4.0 | 0.00 | 0.00 | 0.00 | 45 | 1012.2 |
| 20260507154802 | 57 | 282 | 2.0 | 8.0 | 0.00 | 0.00 | 0.00 | 44 | 1012.3 |
| 20260507154402 | 56 | 271 | 4.0 | 9.0 | 0.00 | 0.00 | 0.00 | 43 | 1012.3 |
| 20260507154102 | 55 | 242 | 3.0 | 9.0 | 0.00 | 0.00 | 0.00 | 45 | 1012.5 |
| 20260507154002 | 55 | 230 | 3.0 | 9.0 | 0.00 | 0.00 | 0.00 | 46 | 1012.5 |
| 20260507153602 | 56 | 233 | 3.0 | 10.0 | 0.00 | 0.00 | 0.00 | 44 | 1012.4 |
| 20260507153502 | 56 | 232 | 3.0 | 10.0 | 0.00 | 0.00 | 0.00 | 45 | 1012.6 |
| 20260507153102 | 55 | 229 | 4.0 | 10.0 | 0.00 | 0.00 | 0.00 | 48 | 1012.5 |
| 20260507153002 | 55 | 231 | 4.0 | 10.0 | 0.00 | 0.00 | 0.00 | 47 | 1012.5 |
| 20260507152902 | 55 | 228 | 3.0 | 10.0 | 0.00 | 0.00 | 0.00 | 45 | 1012.6 |
| 20260507152602 | 56 | 211 | 3.0 | 10.0 | 0.00 | 0.00 | 0.00 | 44 | 1012.5 |
| 20260507152502 | 56 | 209 | 3.0 | 10.0 | 0.00 | 0.00 | 0.00 | 45 | 1012.4 |
| 20260507152402 | 56 | 209 | 3.0 | 10.0 | 0.00 | 0.00 | 0.00 | 44 | 1012.6 |
| 20260507152102 | 56 | 210 | 3.0 | 8.0 | 0.00 | 0.00 | 0.00 | 43 | 1012.6 |
| 20260507152002 | 56 | 194 | 2.0 | 8.0 | 0.00 | 0.00 | 0.00 | 44 | 1012.6 |
| 20260507151602 | 57 | 223 | 3.0 | 8.0 | 0.00 | 0.00 | 0.00 | 44 | 1012.6 |
| 20260507151502 | 57 | 236 | 3.0 | 8.0 | 0.00 | 0.00 | 0.00 | 42 | 1012.7 |
| 20260507151223 | 55 | 266 | 3.0 | 8.0 | 0.00 | 0.00 | 0.00 | 44 | 1012.5 |
| 20260507151102 | 54 | 274 | 3.0 | 8.0 | 0.00 | 0.00 | 0.00 | 45 | 1012.7 |
| 20260507150602 | 54 | 304 | 2.0 | 7.0 | 0.00 | 0.00 | 0.00 | 46 | 1012.5 |
| 20260507150302 | 55 | 301 | 2.0 | 7.0 | 0.00 | 0.00 | 0.00 | 46 | 1012.6 |
| 20260507145902 | 56 | 293 | 2.0 | 7.0 | 0.00 | 0.00 | 0.00 | 44 | 1012.6 |
| 20260507145402 | 54 | 265 | 3.0 | 8.0 | 0.00 | 0.00 | 0.00 | 45 | 1012.7 |
| 20260507145202 | 55 | 246 | 3.0 | 8.0 | 0.00 | 0.00 | 0.00 | 44 | 1012.6 |
| 20260507145102 | 55 | 225 | 3.0 | 8.0 | 0.00 | 0.00 | 0.00 | 46 | 1012.9 |
| 20260507144902 | 55 | 232 | 3.0 | 8.0 | 0.00 | 0.00 | 0.00 | 47 | 1012.7 |
| 20260507144402 | 54 | 237 | 1.0 | 6.0 | 0.00 | 0.00 | 0.00 | 47 | 1012.6 |
| 20260507144323 | 54 | 34 | 1.0 | 4.0 | 0.00 | 0.00 | 0.00 | 51 | 1012.6 |
| 20260507144202 | 54 | 90 | 1.0 | 4.0 | 0.00 | 0.00 | 0.00 | 49 | 1012.5 |
| 20260507144123 | 54 | 74 | 1.0 | 4.0 | 0.00 | 0.00 | 0.00 | 49 | 1012.7 |
| 20260507143602 | 52 | 82 | 2.0 | 6.0 | 0.00 | 0.00 | 0.00 | 52 | 1012.7 |
| 20260507143402 | 53 | 71 | 2.0 | 6.0 | 0.00 | 0.00 | 0.00 | 51 | 1012.5 |
| 20260507143202 | 53 | 72 | 2.0 | 6.0 | 0.00 | 0.00 | 0.00 | 52 | 1012.7 |
| 20260507143002 | 53 | 42 | 2.0 | 6.0 | 0.00 | 0.00 | 0.00 | 56 | 1012.7 |
| 20260507142902 | 53 | 38 | 2.0 | 6.0 | 0.00 | 0.00 | 0.00 | 53 | 1012.6 |
| 20260507142802 | 53 | 53 | 2.0 | 6.0 | 0.00 | 0.00 | 0.00 | 58 | 1012.5 |
| 20260507142602 | 53 | 56 | 2.0 | 6.0 | 0.00 | 0.00 | 0.00 | 58 | 1012.6 |
| 20260507142423 | 53 | 55 | 2.0 | 6.0 | 0.00 | 0.00 | 0.00 | 58 | 1012.6 |
| 20260507142306 | 53 | 48 | 2.0 | 6.0 | 0.00 | 0.00 | 0.00 | 57 | 1012.7 |
| 20260507142202 | 53 | 47 | 2.0 | 6.0 | 0.00 | 0.00 | 0.00 | 57 | 1012.8 |
| 20260507142102 | 53 | 66 | 2.0 | 6.0 | 0.00 | 0.00 | 0.00 | 55 | 1012.8 |
| 20260507142023 | 53 | 103 | 2.0 | 6.0 | 0.00 | 0.00 | 0.00 | 56 | 1012.8 |
| 20260507141902 | 53 | 177 | 2.0 | 6.0 | 0.00 | 0.00 | 0.00 | 57 | 1012.8 |
| 20260507141802 | 53 | 209 | 2.0 | 6.0 | 0.00 | 0.00 | 0.00 | 57 | 1012.7 |
| 20260507141702 | 53 | 228 | 2.0 | 6.0 | 0.00 | 0.00 | 0.00 | 58 | 1012.8 |
| 20260507141602 | 53 | 235 | 2.0 | 6.0 | 0.00 | 0.00 | 0.00 | 58 | 1012.8 |
| 20260507141302 | 53 | 223 | 2.0 | 6.0 | 0.00 | 0.00 | 0.00 | 59 | 1012.7 |
| 20260507141102 | 52 | 225 | 2.0 | 6.0 | 0.00 | 0.00 | 0.00 | 57 | 1012.9 |
| 20260507141002 | 52 | 258 | 2.0 | 6.0 | 0.00 | 0.00 | 0.00 | 57 | 1013.0 |
| 20260507140902 | 52 | 337 | 2.0 | 6.0 | 0.00 | 0.00 | 0.00 | 57 | 1012.9 |
| 20260507140623 | 52 | 60 | 2.0 | 7.0 | 0.00 | 0.00 | 0.00 | 59 | 1013.0 |
| 20260507140523 | 52 | 51 | 2.0 | 7.0 | 0.00 | 0.00 | 0.00 | 60 | 1012.9 |
| 20260507140403 | 52 | 1 | 2.0 | 7.0 | 0.00 | 0.00 | 0.00 | 60 | 1012.9 |
| 20260507140302 | 52 | 335 | 3.0 | 7.0 | 0.00 | 0.00 | 0.00 | 60 | 1012.8 |
| 20260507135802 | 51 | 294 | 3.0 | 7.0 | 0.00 | 0.00 | 0.00 | 61 | 1013.1 |
| 20260507135603 | 51 | 311 | 2.0 | 6.0 | 0.00 | 0.00 | 0.00 | 59 | 1013.0 |
| 20260507135502 | 51 | 328 | 2.0 | 6.0 | 0.00 | 0.00 | 0.00 | 61 | 1013.0 |
| 20260507135423 | 52 | 344 | 2.0 | 6.0 | 0.00 | 0.00 | 0.00 | 62 | 1013.1 |
| 20260507134902 | 52 | 19 | 2.0 | 6.0 | 0.00 | 0.00 | 0.00 | 61 | 1013.1 |
| 20260507134802 | 52 | 172 | 2.0 | 6.0 | 0.00 | 0.00 | 0.00 | 62 | 1013.2 |
| 20260507134602 | 52 | 183 | 2.0 | 6.0 | 0.00 | 0.00 | 0.00 | 62 | 1013.0 |
| 20260507133802 | 53 | 141 | 1.0 | 4.0 | 0.00 | 0.00 | 0.00 | 61 | 1013.2 |
| 20260507133702 | 53 | 136 | 1.0 | 4.0 | 0.00 | 0.00 | 0.00 | 61 | 1013.1 |
| 20260507133623 | 53 | 135 | 1.0 | 4.0 | 0.00 | 0.00 | 0.00 | 61 | 1013.2 |
| 20260507133523 | 53 | 129 | 1.0 | 3.0 | 0.00 | 0.00 | 0.00 | 61 | 1013.1 |
| 20260507133102 | 52 | 99 | 1.0 | 3.0 | 0.00 | 0.00 | 0.00 | 63 | 1013.4 |
| 20260507133002 | 52 | 87 | 1.0 | 3.0 | 0.00 | 0.00 | 0.00 | 63 | 1013.4 |
| 20260507132902 | 51 | 64 | 1.0 | 4.0 | 0.00 | 0.00 | 0.00 | 63 | 1013.3 |
| 20260507132802 | 50 | 56 | 1.0 | 4.0 | 0.00 | 0.00 | 0.00 | 66 | 1013.5 |
| 20260507132202 | 49 | 55 | 1.0 | 4.0 | 0.00 | 0.00 | 0.00 | 67 | 1013.3 |
| 20260507132102 | 49 | 54 | 1.0 | 4.0 | 0.00 | 0.00 | 0.00 | 67 | 1013.2 |
| 20260507132002 | 50 | 53 | 1.0 | 4.0 | 0.00 | 0.00 | 0.00 | 66 | 1013.3 |
| 20260507131902 | 49 | 72 | 1.0 | 4.0 | 0.00 | 0.00 | 0.00 | 67 | 1013.2 |
| 20260507131802 | 49 | 81 | 1.0 | 4.0 | 0.00 | 0.00 | 0.00 | 67 | 1013.4 |
| 20260507131302 | 50 | 127 | 1.0 | 3.0 | 0.00 | 0.00 | 0.00 | 67 | 1013.3 |
| 20260507131102 | 50 | 115 | 1.0 | 2.0 | 0.00 | 0.00 | 0.00 | 67 | 1013.4 |
| 20260507130902 | 49 | 121 | 1.0 | 2.0 | 0.00 | 0.00 | 0.00 | 66 | 1013.2 |
| 20260507130602 | 49 | 122 | 1.0 | 3.0 | 0.00 | 0.00 | 0.00 | 67 | 1013.5 |
| 20260507130402 | 49 | 108 | 1.0 | 3.0 | 0.00 | 0.00 | 0.00 | 71 | 1013.4 |
| 20260507130123 | 49 | 94 | 1.0 | 3.0 | 0.00 | 0.00 | 0.00 | 70 | 1013.4 |
| 20260507125923 | 49 | 97 | 1.0 | 3.0 | 0.00 | 0.00 | 0.00 | 70 | 1013.4 |
| 20260507125602 | 49 | 95 | 1.0 | 2.0 | 0.00 | 0.00 | 0.00 | 71 | 1013.3 |
| 20260507125402 | 49 | 95 | 1.0 | 2.0 | 0.00 | 0.00 | 0.00 | 72 | 1013.3 |
| 20260507125102 | 49 | 100 | 1.0 | 3.0 | 0.00 | 0.00 | 0.00 | 71 | 1013.3 |
| 20260507124902 | 48 | 103 | 1.0 | 3.0 | 0.00 | 0.00 | 0.00 | 72 | 1013.2 |
| 20260507124602 | 48 | 116 | 2.0 | 6.0 | 0.00 | 0.00 | 0.00 | 72 | 1013.5 |
| 20260507124402 | 48 | 109 | 2.0 | 6.0 | 0.00 | 0.00 | 0.00 | 73 | 1013.2 |
| 20260507124302 | 48 | 107 | 2.0 | 6.0 | 0.00 | 0.00 | 0.00 | 73 | 1013.4 |
| 20260507124102 | 48 | 111 | 2.0 | 6.0 | 0.00 | 0.00 | 0.00 | 74 | 1013.4 |
| 20260507124002 | 48 | 110 | 2.0 | 6.0 | 0.00 | 0.00 | 0.00 | 73 | 1013.5 |
| 20260507123902 | 48 | 102 | 2.0 | 6.0 | 0.00 | 0.00 | 0.00 | 72 | 1013.4 |
| 20260507123702 | 48 | 97 | 1.0 | 4.0 | 0.00 | 0.00 | 0.00 | 72 | 1013.3 |
| 20260507123602 | 48 | 123 | 1.0 | 3.0 | 0.00 | 0.00 | 0.00 | 73 | 1013.4 |
| 20260507123423 | 48 | 143 | 1.0 | 3.0 | 0.00 | 0.00 | 0.00 | 73 | 1013.4 |
| 20260507123302 | 48 | 144 | 1.0 | 3.0 | 0.00 | 0.00 | 0.00 | 73 | 1013.3 |
| 20260507123223 | 48 | 142 | 1.0 | 3.0 | 0.00 | 0.00 | 0.00 | 73 | 1013.3 |
| 20260507123102 | 48 | 143 | 1.0 | 3.0 | 0.00 | 0.00 | 0.00 | 73 | 1013.4 |
| 20260507122902 | 48 | 150 | 1.0 | 3.0 | 0.00 | 0.00 | 0.00 | 71 | 1013.3 |
| 20260507122702 | 48 | 144 | 1.0 | 3.0 | 0.00 | 0.00 | 0.00 | 72 | 1013.2 |
| 20260507122602 | 48 | 142 | 1.0 | 3.0 | 0.00 | 0.00 | 0.00 | 72 | 1013.0 |
| 20260507122502 | 48 | 139 | 1.0 | 3.0 | 0.00 | 0.00 | 0.00 | 72 | 1013.2 |
| 20260507122423 | 48 | 135 | 1.0 | 3.0 | 0.00 | 0.00 | 0.00 | 72 | 1013.1 |
| 20260507122102 | 48 | 146 | 1.0 | 3.0 | 0.00 | 0.00 | 0.00 | 73 | 1013.1 |
| 20260507121302 | 47 | 144 | 1.0 | 3.0 | 0.00 | 0.00 | 0.00 | 74 | 1013.1 |
| 20260507121202 | 47 | 137 | 1.0 | 3.0 | 0.00 | 0.00 | 0.00 | 74 | 1013.1 |
| 20260507121123 | 47 | 134 | 1.0 | 3.0 | 0.00 | 0.00 | 0.00 | 75 | 1013.1 |
| 20260507121002 | 47 | 133 | 1.0 | 3.0 | 0.00 | 0.00 | 0.00 | 75 | 1013.2 |
| 20260507120602 | 46 | 128 | 1.0 | 2.0 | 0.00 | 0.00 | 0.00 | 76 | 1013.1 |
| 20260507115902 | 45 | 132 | 1.0 | 3.0 | 0.00 | 0.00 | 0.00 | 77 | 1013.1 |
| 20260507115802 | 45 | 131 | 2.0 | 3.0 | 0.00 | 0.00 | 0.00 | 77 | 1013.1 |
| 20260507115602 | 45 | 132 | 2.0 | 3.0 | 0.00 | 0.00 | 0.00 | 77 | 1013.2 |
| 20260507115502 | 45 | 132 | 2.0 | 3.0 | 0.00 | 0.00 | 0.00 | 77 | 1013.0 |
| 20260507115306 | 44 | 130 | 1.0 | 3.0 | 0.00 | 0.00 | 0.00 | 78 | 1013.1 |
| 20260507115202 | 44 | 130 | 2.0 | 3.0 | 0.00 | 0.00 | 0.00 | 78 | 1013.1 |
| 20260507115102 | 44 | 128 | 2.0 | 3.0 | 0.00 | 0.00 | 0.00 | 79 | 1012.9 |
| 20260507114902 | 44 | 129 | 1.0 | 3.0 | 0.00 | 0.00 | 0.00 | 79 | 1013.0 |
| 20260507114823 | 44 | 128 | 1.0 | 3.0 | 0.00 | 0.00 | 0.00 | 79 | 1013.1 |
| 20260507114623 | 44 | 126 | 1.0 | 3.0 | 0.00 | 0.00 | 0.00 | 80 | 1013.1 |
| 20260507114502 | 44 | 123 | 1.0 | 3.0 | 0.00 | 0.00 | 0.00 | 80 | 1013.1 |
| 20260507114402 | 43 | 123 | 1.0 | 3.0 | 0.00 | 0.00 | 0.00 | 80 | 1013.1 |
| 20260507114302 | 43 | 123 | 1.0 | 3.0 | 0.00 | 0.00 | 0.00 | 81 | 1013.2 |
| 20260507114202 | 43 | 123 | 1.0 | 2.0 | 0.00 | 0.00 | 0.00 | 81 | 1013.0 |
| 20260507114123 | 43 | 124 | 1.0 | 2.0 | 0.00 | 0.00 | 0.00 | 82 | 1013.0 |
| 20260507114002 | 43 | 123 | 1.0 | 2.0 | 0.00 | 0.00 | 0.00 | 82 | 1013.1 |
| 20260507113702 | 43 | 121 | 1.0 | 2.0 | 0.00 | 0.00 | 0.00 | 82 | 1013.1 |
| 20260507113302 | 42 | 118 | 1.0 | 2.0 | 0.00 | 0.00 | 0.00 | 84 | 1013.3 |
| 20260507113102 | 42 | 113 | 0.0 | 2.0 | 0.00 | 0.00 | 0.00 | 85 | 1013.1 |
| 20260507112602 | 41 | 109 | 0.0 | 2.0 | 0.00 | 0.00 | 0.00 | 87 | 1013.0 |
| 20260507112523 | 41 | 110 | 0.0 | 2.0 | 0.00 | 0.00 | 0.00 | 87 | 1013.1 |
| 20260507112402 | 41 | 112 | 0.0 | 2.0 | 0.00 | 0.00 | 0.00 | 87 | 1013.0 |
| 20260507112102 | 41 | 114 | 0.0 | 2.0 | 0.00 | 0.00 | 0.00 | 88 | 1012.9 |
| 20260507111823 | 41 | 113 | 0.0 | 2.0 | 0.00 | 0.00 | 0.00 | 88 | 1013.1 |
| 20260507111603 | 40 | 119 | 0.0 | 2.0 | 0.00 | 0.00 | 0.00 | 88 | 1013.1 |
| 20260507111503 | 40 | 119 | 0.0 | 1.0 | 0.00 | 0.00 | 0.00 | 89 | 1013.0 |
| 20260507111402 | 40 | 118 | 0.0 | 1.0 | 0.00 | 0.00 | 0.00 | 89 | 1013.0 |
| 20260507111302 | 40 | 118 | 0.0 | 1.0 | 0.00 | 0.00 | 0.00 | 89 | 1013.0 |
| 20260507111002 | 40 | 118 | 0.0 | 1.0 | 0.00 | 0.00 | 0.00 | 89 | 1013.1 |
| 20260507110702 | 40 | 114 | 0.0 | 1.0 | 0.00 | 0.00 | 0.00 | 89 | 1013.0 |
| 20260507110602 | 40 | 112 | 0.0 | 1.0 | 0.00 | 0.00 | 0.00 | 89 | 1012.9 |
| 20260507110502 | 40 | 111 | 0.0 | 1.0 | 0.00 | 0.00 | 0.00 | 89 | 1012.9 |
| 20260507110402 | 40 | 112 | 0.0 | 1.0 | 0.00 | 0.00 | 0.00 | 89 | 1013.1 |
| 20260507110302 | 40 | 112 | 0.0 | 1.0 | 0.00 | 0.00 | 0.00 | 89 | 1013.1 |
| 20260507110003 | 40 | 111 | 0.0 | 1.0 | 0.00 | 0.00 | 0.00 | 89 | 1013.0 |
| 20260507105923 | 40 | 111 | 0.0 | 1.0 | 0.00 | 0.00 | 0.00 | 89 | 1013.0 |
| 20260507105602 | 40 | 114 | 0.0 | 1.0 | 0.00 | 0.00 | 0.00 | 89 | 1013.0 |
| 20260507105502 | 40 | 113 | 0.0 | 1.0 | 0.00 | 0.00 | 0.00 | 89 | 1012.8 |
| 20260507105402 | 40 | 112 | 0.0 | 1.0 | 0.00 | 0.00 | 0.00 | 89 | 1012.9 |
| 20260507105306 | 40 | 112 | 0.0 | 1.0 | 0.00 | 0.00 | 0.00 | 89 | 1012.8 |
| 20260507105102 | 40 | 110 | 0.0 | 1.0 | 0.00 | 0.00 | 0.00 | 89 | 1013.1 |
| 20260507104723 | 40 | 108 | 0.0 | 1.0 | 0.00 | 0.00 | 0.00 | 89 | 1012.8 |
| 20260507104402 | 40 | 105 | 0.0 | 1.0 | 0.00 | 0.00 | 0.00 | 90 | 1012.7 |
| 20260507104302 | 40 | 105 | 0.0 | 1.0 | 0.00 | 0.00 | 0.00 | 90 | 1012.9 |
| 20260507104023 | 40 | 105 | 0.0 | 1.0 | 0.00 | 0.00 | 0.00 | 90 | 1012.6 |
| 20260507103402 | 40 | 107 | 0.0 | 1.0 | 0.00 | 0.00 | 0.00 | 90 | 1012.8 |
| 20260507103102 | 40 | 112 | 0.0 | 1.0 | 0.00 | 0.00 | 0.00 | 90 | 1013.0 |
| 20260507102802 | 40 | 113 | 0.0 | 1.0 | 0.00 | 0.00 | 0.00 | 90 | 1012.9 |
| 20260507102702 | 40 | 113 | 0.0 | 1.0 | 0.00 | 0.00 | 0.00 | 90 | 1012.7 |
| 20260507102602 | 40 | 114 | 0.0 | 1.0 | 0.00 | 0.00 | 0.00 | 90 | 1012.6 |
| 20260507102502 | 40 | 117 | 0.0 | 1.0 | 0.00 | 0.00 | 0.00 | 90 | 1012.8 |
| 20260507102402 | 40 | 117 | 0.0 | 1.0 | 0.00 | 0.00 | 0.00 | 90 | 1012.6 |
| 20260507102223 | 40 | 117 | 0.0 | 1.0 | 0.00 | 0.00 | 0.00 | 90 | 1012.9 |
| 20260507102102 | 40 | 113 | 0.0 | 1.0 | 0.00 | 0.00 | 0.00 | 90 | 1012.7 |
| 20260507101802 | 40 | 0 | 0.0 | 0.0 | 0.00 | 0.00 | 0.00 | 89 | 1012.7 |
| 20260507101502 | 40 | 0 | 0.0 | 0.0 | 0.00 | 0.00 | 0.00 | 89 | 1012.7 |
| 20260507100502 | 41 | 0 | 0.0 | 0.0 | 0.00 | 0.00 | 0.00 | 87 | 1012.7 |
| 20260507100402 | 41 | 0 | 0.0 | 0.0 | 0.00 | 0.00 | 0.00 | 87 | 1012.6 |
| 20260507095902 | 41 | 0 | 0.0 | 0.0 | 0.00 | 0.00 | 0.00 | 86 | 1012.6 |
| 20260507095802 | 41 | 0 | 0.0 | 0.0 | 0.00 | 0.00 | 0.00 | 86 | 1012.6 |
| 20260507095623 | 41 | 0 | 0.0 | 0.0 | 0.00 | 0.00 | 0.00 | 86 | 1012.7 |
| 20260507095402 | 41 | 111 | 0.0 | 1.0 | 0.00 | 0.00 | 0.00 | 86 | 1012.7 |
| 20260507095305 | 41 | 113 | 0.0 | 1.0 | 0.00 | 0.00 | 0.00 | 86 | 1012.6 |
| 20260507095102 | 41 | 114 | 0.0 | 1.0 | 0.00 | 0.00 | 0.00 | 86 | 1012.6 |
| 20260507094602 | 41 | 117 | 0.0 | 2.0 | 0.00 | 0.00 | 0.00 | 85 | 1012.8 |
| 20260507094502 | 41 | 118 | 0.0 | 2.0 | 0.00 | 0.00 | 0.00 | 85 | 1012.7 |
| 20260507094402 | 41 | 119 | 0.0 | 2.0 | 0.00 | 0.00 | 0.00 | 85 | 1012.7 |
| 20260507094002 | 41 | 119 | 0.0 | 2.0 | 0.00 | 0.01 | 0.00 | 85 | 1012.8 |
| 20260507093902 | 41 | 119 | 0.0 | 2.0 | 0.00 | 0.01 | 0.00 | 85 | 1012.9 |
| 20260507093602 | 41 | 115 | 1.0 | 3.0 | 0.00 | 0.01 | 0.00 | 85 | 1012.6 |
| 20260507093502 | 41 | 117 | 1.0 | 3.0 | 0.00 | 0.01 | 0.00 | 85 | 1012.5 |
| 20260507093202 | 41 | 115 | 1.0 | 3.0 | 0.00 | 0.01 | 0.00 | 85 | 1012.6 |
| 20260507093102 | 41 | 118 | 1.0 | 3.0 | 0.00 | 0.02 | 0.00 | 85 | 1012.5 |
| 20260507092802 | 41 | 120 | 1.0 | 3.0 | 0.00 | 0.02 | 0.00 | 85 | 1012.7 |
| 20260507092602 | 41 | 120 | 1.0 | 3.0 | 0.00 | 0.02 | 0.00 | 86 | 1012.6 |
| 20260507092423 | 41 | 120 | 1.0 | 3.0 | 0.00 | 0.03 | 0.00 | 86 | 1012.6 |
| 20260507092102 | 41 | 119 | 1.0 | 3.0 | 0.00 | 0.03 | 0.00 | 86 | 1012.7 |
| 20260507092005 | 41 | 118 | 1.0 | 3.0 | 0.00 | 0.04 | 0.00 | 86 | 1012.6 |
| 20260507091902 | 41 | 117 | 1.0 | 3.0 | 0.00 | 0.04 | 0.00 | 86 | 1012.6 |
| 20260507091802 | 41 | 114 | 1.0 | 3.0 | 0.00 | 0.04 | 0.00 | 86 | 1012.9 |
| 20260507091602 | 41 | 114 | 1.0 | 3.0 | 0.00 | 0.04 | 0.00 | 86 | 1012.7 |
| 20260507091423 | 41 | 113 | 1.0 | 2.0 | 0.00 | 0.04 | 0.00 | 86 | 1012.7 |
| 20260507091123 | 41 | 120 | 1.0 | 3.0 | 0.00 | 0.05 | 0.00 | 86 | 1012.7 |
| 20260507091002 | 41 | 118 | 1.0 | 3.0 | 0.00 | 0.05 | 0.00 | 86 | 1012.7 |
| 20260507090802 | 41 | 122 | 1.0 | 3.0 | 0.00 | 0.05 | 0.00 | 86 | 1012.7 |
| 20260507090602 | 41 | 125 | 1.0 | 3.0 | 0.00 | 0.05 | 0.00 | 86 | 1012.6 |
| 20260507090402 | 41 | 123 | 1.0 | 3.0 | 0.00 | 0.05 | 0.00 | 86 | 1012.8 |
| 20260507090302 | 41 | 121 | 1.0 | 3.0 | 0.00 | 0.05 | 0.00 | 86 | 1012.7 |
| 20260507090223 | 41 | 121 | 1.0 | 3.0 | 0.00 | 0.05 | 0.00 | 86 | 1012.9 |
| 20260507085602 | 41 | 120 | 1.0 | 3.0 | 0.00 | 0.06 | 0.00 | 87 | 1013.0 |
| 20260507085402 | 41 | 122 | 1.0 | 3.0 | 0.00 | 0.06 | 0.00 | 87 | 1012.9 |
| 20260507085202 | 41 | 121 | 1.0 | 3.0 | 0.00 | 0.06 | 0.00 | 87 | 1013.0 |
| 20260507085102 | 41 | 121 | 1.0 | 3.0 | 0.00 | 0.06 | 0.00 | 87 | 1012.8 |
| 20260507084902 | 41 | 122 | 1.0 | 3.0 | 0.00 | 0.06 | 0.00 | 87 | 1012.9 |
| 20260507084702 | 41 | 122 | 1.0 | 3.0 | 0.00 | 0.06 | 0.00 | 87 | 1012.9 |
| 20260507084202 | 41 | 0 | 0.0 | 0.0 | 0.00 | 0.06 | 0.00 | 88 | 1012.8 |
| 20260507084102 | 41 | 0 | 0.0 | 0.0 | 0.00 | 0.06 | 0.00 | 88 | 1013.1 |
| 20260507083902 | 41 | 0 | 0.0 | 0.0 | 0.00 | 0.06 | 0.00 | 88 | 1012.8 |
| 20260507083402 | 40 | 103 | 0.0 | 2.0 | 0.00 | 0.06 | 0.00 | 89 | 1013.1 |
| 20260507083302 | 40 | 104 | 0.0 | 2.0 | 0.00 | 0.06 | 0.00 | 89 | 1013.0 |
| 20260507083002 | 40 | 108 | 1.0 | 2.0 | 0.00 | 0.06 | 0.00 | 90 | 1013.0 |
| 20260507082904 | 40 | 108 | 1.0 | 2.0 | 0.00 | 0.07 | 0.00 | 90 | 1013.1 |
| 20260507082602 | 40 | 108 | 0.0 | 2.0 | 0.00 | 0.07 | 0.00 | 90 | 1013.0 |
| 20260507082502 | 40 | 111 | 0.0 | 2.0 | 0.00 | 0.07 | 0.00 | 90 | 1013.0 |
| 20260507082423 | 40 | 111 | 0.0 | 2.0 | 0.00 | 0.07 | 0.00 | 90 | 1013.0 |
| 20260507082202 | 39 | 115 | 0.0 | 2.0 | 0.00 | 0.08 | 0.00 | 90 | 1012.9 |
| 20260507082102 | 39 | 119 | 0.0 | 2.0 | 0.00 | 0.08 | 0.00 | 90 | 1013.0 |
| 20260507081902 | 39 | 118 | 0.0 | 1.0 | 0.00 | 0.08 | 0.00 | 90 | 1013.0 |
| 20260507081602 | 39 | 111 | 0.0 | 2.0 | 0.00 | 0.09 | 0.00 | 89 | 1013.1 |
| 20260507081402 | 40 | 111 | 0.0 | 2.0 | 0.00 | 0.09 | 0.00 | 89 | 1013.0 |
| 20260507081002 | 40 | 114 | 1.0 | 3.0 | 0.00 | 0.10 | 0.00 | 90 | 1013.1 |
| 20260507080702 | 40 | 116 | 1.0 | 3.0 | 0.00 | 0.10 | 0.00 | 90 | 1013.0 |
| 20260507080602 | 40 | 117 | 1.0 | 3.0 | 0.00 | 0.11 | 0.00 | 90 | 1013.1 |
| 20260507080502 | 40 | 117 | 1.0 | 3.0 | 0.00 | 0.11 | 0.00 | 90 | 1013.1 |
| 20260507080402 | 40 | 116 | 1.0 | 3.0 | 0.00 | 0.11 | 0.00 | 90 | 1013.2 |
| 20260507080323 | 40 | 118 | 1.0 | 3.0 | 0.00 | 0.11 | 0.00 | 90 | 1013.1 |
| 20260507075702 | 40 | 121 | 1.0 | 2.0 | 0.00 | 0.12 | 0.00 | 90 | 1013.0 |
| 20260507075402 | 40 | 120 | 0.0 | 2.0 | 0.00 | 0.12 | 0.00 | 91 | 1012.9 |
| 20260507075124 | 40 | 116 | 1.0 | 3.0 | 0.00 | 0.12 | 0.00 | 91 | 1013.0 |
| 20260507074902 | 40 | 115 | 1.0 | 3.0 | 0.00 | 0.12 | 0.00 | 90 | 1013.0 |
| 20260507074802 | 40 | 110 | 0.0 | 3.0 | 0.00 | 0.13 | 0.00 | 90 | 1013.0 |
| 20260507074602 | 40 | 111 | 0.0 | 3.0 | 0.00 | 0.13 | 0.00 | 90 | 1012.9 |
| 20260507074402 | 40 | 112 | 0.0 | 3.0 | 0.00 | 0.13 | 0.00 | 91 | 1012.9 |
| 20260507074202 | 39 | 115 | 0.0 | 2.0 | 0.00 | 0.13 | 0.00 | 91 | 1013.1 |
| 20260507074123 | 39 | 114 | 0.0 | 2.0 | 0.00 | 0.13 | 0.00 | 91 | 1012.9 |
| 20260507074023 | 39 | 115 | 0.0 | 2.0 | 0.00 | 0.13 | 0.00 | 91 | 1012.9 |
| 20260507073902 | 39 | 116 | 0.0 | 2.0 | 0.00 | 0.14 | 0.00 | 91 | 1013.0 |
| 20260507073724 | 39 | 116 | 0.0 | 2.0 | 0.00 | 0.14 | 0.00 | 90 | 1012.9 |
| 20260507073602 | 40 | 120 | 0.0 | 2.0 | 0.00 | 0.14 | 0.00 | 90 | 1013.1 |
| 20260507072802 | 39 | 124 | 0.0 | 2.0 | 0.00 | 0.15 | 0.00 | 91 | 1013.1 |
| 20260507072702 | 39 | 139 | 0.0 | 1.0 | 0.00 | 0.15 | 0.00 | 91 | 1013.0 |
| 20260507072602 | 39 | 0 | 0.0 | 0.0 | 0.00 | 0.15 | 0.00 | 91 | 1012.9 |
| 20260507072323 | 39 | 0 | 0.0 | 0.0 | 0.00 | 0.15 | 0.00 | 91 | 1013.0 |
| 20260507072202 | 39 | 0 | 0.0 | 0.0 | 0.00 | 0.15 | 0.00 | 91 | 1013.0 |
| 20260507072102 | 39 | 0 | 0.0 | 0.0 | 0.00 | 0.16 | 0.00 | 91 | 1013.0 |
| 20260507072002 | 39 | 0 | 0.0 | 0.0 | 0.00 | 0.16 | 0.00 | 91 | 1013.0 |
| 20260507071903 | 39 | 0 | 0.0 | 0.0 | 0.00 | 0.16 | 0.00 | 91 | 1013.0 |
| 20260507071702 | 39 | 0 | 0.0 | 0.0 | 0.00 | 0.16 | 0.00 | 91 | 1013.1 |
| 20260507071602 | 39 | 0 | 0.0 | 0.0 | 0.00 | 0.16 | 0.00 | 91 | 1013.1 |
| 20260507071503 | 39 | 0 | 0.0 | 0.0 | 0.00 | 0.16 | 0.00 | 91 | 1013.2 |
| 20260507071402 | 39 | 0 | 0.0 | 0.0 | 0.00 | 0.17 | 0.00 | 91 | 1013.1 |
| 20260507071302 | 39 | 0 | 0.0 | 0.0 | 0.00 | 0.17 | 0.00 | 91 | 1013.0 |
| 20260507071223 | 39 | 0 | 0.0 | 0.0 | 0.00 | 0.17 | 0.00 | 91 | 1013.0 |
| 20260507071102 | 39 | 0 | 0.0 | 0.0 | 0.00 | 0.17 | 0.00 | 91 | 1013.2 |
| 20260507071002 | 39 | 0 | 0.0 | 0.0 | 0.00 | 0.17 | 0.00 | 91 | 1013.1 |
| 20260507070602 | 39 | 112 | 0.0 | 2.0 | 0.00 | 0.17 | 0.00 | 91 | 1012.9 |
| 20260507070402 | 39 | 112 | 0.0 | 2.0 | 0.00 | 0.17 | 0.00 | 91 | 1013.1 |
| 20260507070302 | 39 | 112 | 0.0 | 2.0 | 0.00 | 0.17 | 0.00 | 91 | 1013.1 |
| 20260507065823 | 39 | 109 | 0.0 | 2.0 | 0.00 | 0.18 | 0.00 | 91 | 1013.0 |
| 20260507065402 | 39 | 124 | 0.0 | 2.0 | 0.00 | 0.18 | 0.00 | 91 | 1013.4 |
| 20260507065202 | 39 | 130 | 0.0 | 2.0 | 0.00 | 0.18 | 0.00 | 91 | 1013.4 |
| 20260507065102 | 39 | 130 | 0.0 | 2.0 | 0.00 | 0.18 | 0.00 | 91 | 1013.3 |
| 20260507064923 | 39 | 130 | 0.0 | 2.0 | 0.00 | 0.18 | 0.00 | 91 | 1013.4 |
| 20260507064702 | 40 | 130 | 0.0 | 2.0 | 0.00 | 0.18 | 0.00 | 91 | 1013.2 |
| 20260507064623 | 40 | 130 | 0.0 | 2.0 | 0.00 | 0.18 | 0.00 | 91 | 1013.2 |
| 20260507064402 | 40 | 0 | 0.0 | 0.0 | 0.00 | 0.18 | 0.00 | 91 | 1013.2 |
| 20260507063802 | 39 | 0 | 0.0 | 0.0 | 0.00 | 0.18 | 0.00 | 90 | 1013.4 |
| 20260507063502 | 39 | 0 | 0.0 | 0.0 | 0.00 | 0.19 | 0.00 | 90 | 1013.3 |
| 20260507063402 | 39 | 0 | 0.0 | 0.0 | 0.00 | 0.19 | 0.00 | 90 | 1013.3 |
| 20260507063302 | 40 | 0 | 0.0 | 0.0 | 0.00 | 0.19 | 0.00 | 90 | 1013.3 |
| 20260507063102 | 40 | 0 | 0.0 | 0.0 | 0.00 | 0.19 | 0.00 | 90 | 1013.2 |
| 20260507062902 | 40 | 0 | 0.0 | 0.0 | 0.00 | 0.19 | 0.00 | 89 | 1013.5 |
| 20260507062802 | 40 | 0 | 0.0 | 0.0 | 0.00 | 0.19 | 0.00 | 89 | 1013.3 |
| 20260507062702 | 40 | 0 | 0.0 | 0.0 | 0.00 | 0.19 | 0.00 | 89 | 1013.4 |
| 20260507062603 | 40 | 0 | 0.0 | 0.0 | 0.00 | 0.19 | 0.00 | 89 | 1013.4 |
| 20260507062502 | 40 | 0 | 0.0 | 0.0 | 0.00 | 0.19 | 0.00 | 89 | 1013.5 |
| 20260507062402 | 40 | 0 | 0.0 | 0.0 | 0.00 | 0.19 | 0.00 | 89 | 1013.4 |
| 20260507062305 | 40 | 0 | 0.0 | 0.0 | 0.00 | 0.19 | 0.00 | 89 | 1013.3 |
| 20260507062102 | 40 | 0 | 0.0 | 0.0 | 0.00 | 0.19 | 0.00 | 88 | 1013.3 |
| 20260507061902 | 40 | 0 | 0.0 | 0.0 | 0.00 | 0.20 | 0.00 | 88 | 1013.5 |
| 20260507061523 | 40 | 0 | 0.0 | 0.0 | 0.00 | 0.20 | 0.00 | 88 | 1013.6 |
| 20260507061123 | 41 | 115 | 0.0 | 1.0 | 0.00 | 0.21 | 0.00 | 87 | 1013.6 |
| 20260507060902 | 41 | 115 | 0.0 | 1.0 | 0.00 | 0.21 | 0.00 | 87 | 1013.4 |
| 20260507060802 | 41 | 115 | 0.0 | 1.0 | 0.00 | 0.22 | 0.00 | 87 | 1013.4 |
| 20260507060702 | 41 | 116 | 0.0 | 1.0 | 0.00 | 0.22 | 0.00 | 87 | 1013.5 |
| 20260507060402 | 41 | 117 | 0.0 | 1.0 | 0.00 | 0.23 | 0.00 | 86 | 1013.5 |
| 20260507060302 | 41 | 116 | 0.0 | 1.0 | 0.00 | 0.23 | 0.00 | 86 | 1013.6 |
| 20260507060203 | 41 | 121 | 0.0 | 2.0 | 0.00 | 0.23 | 0.00 | 86 | 1013.5 |
| 20260507060002 | 41 | 127 | 0.0 | 2.0 | 0.00 | 0.23 | 0.00 | 86 | 1013.4 |
| 20260507055902 | 42 | 131 | 0.0 | 2.0 | 0.00 | 0.24 | 0.00 | 85 | 1013.6 |
| 20260507055702 | 42 | 130 | 0.0 | 2.0 | 0.00 | 0.24 | 0.00 | 85 | 1013.6 |
| 20260507055402 | 42 | 131 | 0.0 | 2.0 | 0.00 | 0.25 | 0.00 | 85 | 1013.6 |
| 20260507055305 | 42 | 127 | 0.0 | 2.0 | 0.00 | 0.25 | 0.00 | 85 | 1013.7 |
| 20260507054624 | 42 | 120 | 1.0 | 2.0 | 0.00 | 0.27 | 0.00 | 84 | 1013.7 |
| 20260507054402 | 42 | 117 | 1.0 | 2.0 | 0.00 | 0.27 | 0.00 | 83 | 1013.7 |
| 20260507054124 | 42 | 115 | 1.0 | 2.0 | 0.00 | 0.28 | 0.00 | 83 | 1013.6 |
| 20260507053903 | 42 | 115 | 1.0 | 2.0 | 0.00 | 0.28 | 0.00 | 83 | 1013.6 |
| 20260507053702 | 43 | 117 | 1.0 | 2.0 | 0.00 | 0.28 | 0.00 | 83 | 1013.7 |
| 20260507053623 | 43 | 116 | 1.0 | 2.0 | 0.00 | 0.28 | 0.00 | 82 | 1013.7 |
| 20260507053423 | 43 | 117 | 1.0 | 2.0 | 0.00 | 0.28 | 0.00 | 82 | 1013.6 |
| 20260507053302 | 43 | 118 | 1.0 | 2.0 | 0.00 | 0.29 | 0.00 | 83 | 1013.6 |
| 20260507053102 | 43 | 120 | 1.0 | 3.0 | 0.00 | 0.29 | 0.00 | 82 | 1013.6 |
| 20260507052802 | 43 | 118 | 1.0 | 3.0 | 0.00 | 0.29 | 0.00 | 82 | 1013.8 |
| 20260507052423 | 43 | 117 | 1.0 | 3.0 | 0.00 | 0.30 | 0.00 | 82 | 1013.7 |
| 20260507052324 | 43 | 117 | 1.0 | 3.0 | 0.00 | 0.30 | 0.00 | 82 | 1013.5 |
| 20260507052102 | 43 | 115 | 1.0 | 2.0 | 0.00 | 0.30 | 0.00 | 81 | 1013.8 |
| 20260507051902 | 43 | 119 | 1.0 | 2.0 | 0.00 | 0.30 | 0.00 | 81 | 1013.7 |
| 20260507051702 | 43 | 120 | 1.0 | 2.0 | 0.00 | 0.30 | 0.00 | 81 | 1013.7 |
| 20260507051602 | 43 | 120 | 1.0 | 2.0 | 0.00 | 0.30 | 0.00 | 81 | 1013.7 |
| 20260507051402 | 44 | 123 | 1.0 | 2.0 | 0.00 | 0.30 | 0.00 | 80 | 1013.8 |
| 20260507051302 | 44 | 124 | 1.0 | 2.0 | 0.00 | 0.30 | 0.00 | 80 | 1013.9 |
| 20260507051123 | 44 | 126 | 1.0 | 3.0 | 0.00 | 0.30 | 0.00 | 80 | 1013.8 |
| 20260507050802 | 44 | 124 | 0.0 | 3.0 | 0.00 | 0.31 | 0.00 | 80 | 1013.9 |
| 20260507050602 | 44 | 124 | 0.0 | 3.0 | 0.00 | 0.31 | 0.00 | 80 | 1013.9 |
| 20260507050323 | 44 | 121 | 1.0 | 3.0 | 0.00 | 0.31 | 0.00 | 80 | 1014.2 |
| 20260507050223 | 44 | 122 | 1.0 | 3.0 | 0.00 | 0.31 | 0.00 | 80 | 1014.0 |
| 20260507045902 | 44 | 118 | 1.0 | 3.0 | 0.00 | 0.31 | 0.00 | 79 | 1013.9 |
| 20260507045723 | 44 | 117 | 1.0 | 3.0 | 0.00 | 0.31 | 0.00 | 79 | 1013.9 |
| 20260507045602 | 44 | 118 | 1.0 | 3.0 | 0.00 | 0.31 | 0.00 | 79 | 1013.8 |
| 20260507045523 | 44 | 118 | 1.0 | 3.0 | 0.00 | 0.32 | 0.00 | 79 | 1013.9 |
| 20260507045423 | 44 | 117 | 1.0 | 3.0 | 0.00 | 0.32 | 0.00 | 79 | 1013.8 |
| 20260507045002 | 44 | 118 | 1.0 | 2.0 | 0.00 | 0.32 | 0.00 | 79 | 1014.0 |